Location: Limoges
(45.8354°N, 1.2645°E)
Time: 19:46:59
(UTC+02:00)

Courier 1B Rocket - Pass Details

Date: 27 February 2024
Orbit: 920 x 1201 km, 28.2° (Epoch: 20 April)

Event Time Altitude Azimuth Distance (km) Brightness Sun altitude
Rises 03:36:11 0° 225° (SW) 3,612 - -41.0°
Reaches altitude 10° 03:40:16 10° 201° (SSW) 2,630 - -40.5°
Maximum altitude 03:43:15 14° 172° (S) 2,351 - -40.0°
Drops below altitude 10° 03:46:13 10° 143° (SE) 2,604 - -39.6°
Exits shadow 03:48:16 - 129° (SE) 3,028 7.7 -39.3°
Sets 03:50:13 0° 119° (ESE) 3,548 8.2 -39.0°
